User: anonymous   Login
Location: Cactus School
(34.5700°N, 118.0931°W)
Time: 06:46:30
(UTC-07:00)
Language:

Tiangong 2 - Orbit

View from above orbital plane
View from above orbital plane
View from above satellite
View from above satellite

Ground track
Ground track

The orbit data is extracted from the following two-line orbital elements,

1 41765U 16057A   18198.16524878  .00002618  00000-0  37358-4 0  9997
2 41765  42.7833 162.0747 0005666 113.1328   6.0067 15.59047382104706
Epoch (UTC): 17 July 2018 03:57:57
Eccentricity: 0.0005666
inclination: 42.7833°
perigee height: 386 km
apogee height: 394 km
right ascension of ascending node: 162.0747°
argument of perigee: 113.1328°
revolutions per day: 15.59047382
mean anomaly at epoch: 6.0067°
orbit number at epoch: 10470

The dashed part of the orbit path shows where the satellite is in the earth's shadow,  

DLR